Flag for French Polynesia Weather past 2 weeks in Taiohae, Marquesas Islands, French Polynesia

Now
72 °F

Mild.


Feels Like: 72 °F
Forecast: 78 / 83 °F
Wind: 6 mph from Northeast

Location: Atuona

Current Time: Jul 29, 2015 at 4:52:37 AM

Latest Report: Jul 29, 2015 at 3:30 AM


Visibility: N/A

Pressure: 29.84 "Hg

Humidity: 82%

Dew point: 67 °F

Location of TaiohaeLocation

Historic Weather in Taiohae — Graph

°F

Taiohae temperature yesterday

Maximum temperature yesterday: 84 °F (at 10:30 AM)
Minimum temperature yesterday: 72 °F (at 12:30 AM)
Average temperature yesterday: 77 °F

Past Weeks' High & Low Weather Summary

 TemperatureHumidityPressure
High86 °F (Jul 22, 9:30 AM)93% (Jul 25, 4:30 AM)30.02 "Hg (Jul 25, 4:30 AM)
Low71 °F (Jul 15, 4:30 AM)57% (Jul 20, 12:30 PM)29.80 "Hg (Jul 28, 3:30 PM)
Average77 °F77%29.90 "Hg
* Reported Jul 14 3:30 AM — Jul 29 3:30 AM, Taiohae, Weather by CustomWeather, © 2015

Note: Actual official high and low records may vary slightly from our data, if they occured in-between our weather recording intervals... More about our weather records

Advertising

Taiohae weather history for previous 24 hours

 ConditionsComfort  
Time TempWeatherWind HumidityBarometerVisibility
3:30 AM
Wed, Jul 29
72 °FMild.6 mph82%29.84 "HgN/A
2:30 AM72 °FMild.1 mph82%29.85 "HgN/A
1:30 AM72 °FMild.1 mph82%29.86 "HgN/A
12:30 AM73 °FMild.2 mph83%29.87 "HgN/A
11:30 PM
Tue, Jul 28
73 °FMild.1 mph81%29.88 "HgN/A
10:30 PM73 °FMild.2 mph79%29.88 "HgN/A
9:30 PM73 °FMild.No wind80%29.88 "HgN/A
8:30 PM74 °FMild.3 mph80%29.88 "HgN/A
7:30 PM75 °FMild.No wind79%29.85 "HgN/A
5:30 PM78 °FWarm.3 mph73%29.82 "HgN/A
4:30 PM82 °FPartly sunny.2 mph62%29.80 "Hg25 mi
3:30 PM82 °FPartly sunny.8 mph65%29.80 "Hg22 mi
2:30 PM80 °FWarm.3 mph69%29.81 "HgN/A
1:30 PM83 °FOvercast.5 mph65%29.84 "Hg22 mi
12:30 PM83 °FPartly sunny.6 mph64%29.86 "Hg22 mi
10:30 AM84 °FWarm.2 mph66%29.90 "HgN/A
9:30 AM81 °FOvercast.2 mph70%29.92 "Hg22 mi
8:30 AM79 °FOvercast.2 mph73%29.93 "Hg22 mi
7:30 AM75 °FOvercast.2 mph81%29.92 "Hg22 mi
6:30 AM73 °FOvercast.No wind81%29.90 "Hg19 mi
5:30 AM72 °FPassing clouds.2 mph81%29.87 "Hg16 mi
4:30 AM72 °FMild.No wind81%29.85 "HgN/A
Weather by CustomWeather, © 2015

See weather overviewHow to use our weather pages